| time (UTC) | temp F | wind direction | speed MPH | gust MPH | rain 1hr in | rain 24hr in | rain mn in | humidity % | barometer mb |
| 20260903045428 | 60 | 316 | 0.0 | 0.0 | 0.00 | 0.01 | 0.01 | 93 | 1018.4 |
| 20260903044442 | 60 | 316 | 0.0 | 1.0 | 0.00 | 0.01 | 0.01 | 93 | 1018.6 |
| 20260903043416 | 60 | 316 | 0.0 | 3.0 | 0.00 | 0.01 | 0.01 | 93 | 1018.5 |
| 20260903042433 | 60 | 316 | 0.0 | 1.0 | 0.00 | 0.01 | 0.01 | 93 | 1018.6 |
| 20260903041427 | 61 | 316 | 1.0 | 3.0 | 0.00 | 0.01 | 0.01 | 93 | 1018.5 |
| 20260903040421 | 61 | 316 | 0.0 | 2.0 | 0.00 | 0.01 | 0.01 | 93 | 1018.4 |
| 20260903035413 | 61 | 316 | 1.0 | 2.0 | 0.00 | 0.01 | 0.01 | 93 | 1018.3 |
| 20260903034431 | 61 | 316 | 2.0 | 6.0 | 0.00 | 0.01 | 0.01 | 93 | 1018.3 |
| 20260903033426 | 60 | 323 | 3.0 | 4.0 | 0.00 | 0.01 | 0.01 | 92 | 1018.2 |
| 20260903032439 | 61 | 298 | 0.0 | 4.0 | 0.00 | 0.01 | 0.01 | 92 | 1018.1 |
| 20260903031415 | 61 | 314 | 3.0 | 5.0 | 0.00 | 0.01 | 0.01 | 91 | 1018.0 |
| 20260903030428 | 61 | 321 | 3.0 | 5.0 | 0.00 | 0.01 | 0.01 | 91 | 1017.9 |
| 20260903025421 | 62 | 300 | 2.0 | 6.0 | 0.00 | 0.01 | 0.01 | 90 | 1017.9 |
| 20260903024415 | 62 | 310 | 1.0 | 6.0 | 0.00 | 0.01 | 0.01 | 89 | 1018.0 |
| 20260903023413 | 62 | 295 | 2.0 | 6.0 | 0.00 | 0.01 | 0.01 | 89 | 1018.0 |
| 20260903022426 | 63 | 267 | 1.0 | 7.0 | 0.00 | 0.01 | 0.01 | 87 | 1018.0 |
| 20260903021420 | 64 | 308 | 2.0 | 7.0 | 0.00 | 0.01 | 0.01 | 85 | 1018.0 |
| 20260903020418 | 64 | 296 | 4.0 | 8.0 | 0.00 | 0.01 | 0.01 | 84 | 1018.0 |
| 20260903015431 | 65 | 324 | 4.0 | 7.0 | 0.00 | 0.01 | 0.01 | 83 | 1018.1 |
| 20260903014423 | 65 | 319 | 5.0 | 12.0 | 0.00 | 0.01 | 0.01 | 81 | 1018.1 |
| 20260903013418 | 66 | 324 | 3.0 | 10.0 | 0.00 | 0.01 | 0.01 | 81 | 1018.3 |
| 20260903012416 | 67 | 295 | 3.0 | 10.0 | 0.00 | 0.01 | 0.01 | 80 | 1018.3 |
| 20260903011429 | 67 | 322 | 7.0 | 11.0 | 0.00 | 0.01 | 0.01 | 78 | 1018.3 |
| 20260903010423 | 67 | 296 | 5.0 | 12.0 | 0.00 | 0.01 | 0.01 | 77 | 1018.3 |
| 20260903005420 | 68 | 272 | 4.0 | 14.0 | 0.00 | 0.01 | 0.01 | 77 | 1018.2 |
| 20260903004433 | 68 | 284 | 4.0 | 9.0 | 0.00 | 0.01 | 0.01 | 75 | 1018.0 |
| 20260903003427 | 68 | 304 | 7.0 | 14.0 | 0.00 | 0.01 | 0.01 | 74 | 1018.1 |
| 20260903002422 | 68 | 282 | 6.0 | 12.0 | 0.00 | 0.01 | 0.01 | 72 | 1018.1 |
| 20260903001420 | 68 | 298 | 6.0 | 12.0 | 0.00 | 0.01 | 0.01 | 74 | 1018.2 |
| 20260903000432 | 68 | 299 | 9.0 | 13.0 | 0.00 | 0.01 | 0.01 | 74 | 1018.2 |
| 20260902235424 | 68 | 306 | 7.0 | 12.0 | 0.00 | 0.01 | 0.01 | 73 | 1018.2 |
| 20260902234421 | 68 | 304 | 8.0 | 16.0 | 0.00 | 0.01 | 0.01 | 72 | 1018.3 |
| 20260902233416 | 69 | 284 | 5.0 | 12.0 | 0.00 | 0.01 | 0.01 | 71 | 1018.3 |
| 20260902232430 | 68 | 322 | 6.0 | 14.0 | 0.00 | 0.01 | 0.01 | 73 | 1018.4 |
| 20260902231424 | 69 | 315 | 8.0 | 15.0 | 0.00 | 0.01 | 0.01 | 73 | 1018.3 |
| 20260902230423 | 69 | 291 | 8.0 | 14.0 | 0.00 | 0.01 | 0.01 | 73 | 1018.4 |
| 20260902225433 | 69 | 336 | 8.0 | 14.0 | 0.00 | 0.01 | 0.01 | 71 | 1018.6 |
| 20260902224426 | 70 | 323 | 6.0 | 13.0 | 0.00 | 0.01 | 0.01 | 70 | 1018.6 |
| 20260902223421 | 70 | 295 | 5.0 | 12.0 | 0.00 | 0.01 | 0.01 | 69 | 1018.6 |
| 20260902222417 | 69 | 329 | 5.0 | 14.0 | 0.00 | 0.01 | 0.01 | 70 | 1018.6 |
| 20260902221429 | 70 | 312 | 7.0 | 14.0 | 0.00 | 0.01 | 0.01 | 70 | 1018.7 |
| 20260902220423 | 70 | 329 | 4.0 | 18.0 | 0.00 | 0.01 | 0.01 | 71 | 1018.6 |
| 20260902215419 | 70 | 303 | 3.0 | 12.0 | 0.00 | 0.01 | 0.01 | 69 | 1018.7 |
| 20260902214432 | 70 | 299 | 7.0 | 12.0 | 0.00 | 0.01 | 0.01 | 69 | 1018.7 |
| 20260902213426 | 70 | 318 | 6.0 | 12.0 | 0.00 | 0.01 | 0.01 | 69 | 1018.7 |
| 20260902212421 | 70 | 322 | 6.0 | 13.0 | 0.00 | 0.01 | 0.01 | 69 | 1018.7 |
| 20260902211416 | 70 | 289 | 2.0 | 13.0 | 0.00 | 0.01 | 0.01 | 70 | 1018.8 |
| 20260902210429 | 70 | 290 | 4.0 | 11.0 | 0.00 | 0.01 | 0.01 | 69 | 1018.8 |
| 20260902205420 | 70 | 295 | 4.0 | 11.0 | 0.00 | 0.01 | 0.01 | 70 | 1018.8 |
| 20260902204414 | 70 | 307 | 1.0 | 9.0 | 0.00 | 0.01 | 0.01 | 68 | 1018.9 |
| 20260902203432 | 70 | 294 | 2.0 | 9.0 | 0.00 | 0.01 | 0.01 | 69 | 1018.8 |
| 20260902202425 | 69 | 289 | 3.0 | 12.0 | 0.00 | 0.01 | 0.01 | 73 | 1019.0 |
| 20260902201418 | 70 | 234 | 3.0 | 6.0 | 0.00 | 0.01 | 0.01 | 70 | 1019.1 |
| 20260902200415 | 68 | 320 | 4.0 | 12.0 | 0.00 | 0.01 | 0.01 | 73 | 1019.2 |
| 20260902195425 | 68 | 327 | 6.0 | 9.0 | 0.00 | 0.01 | 0.01 | 76 | 1019.3 |
| 20260902194417 | 68 | 298 | 3.0 | 8.0 | 0.00 | 0.01 | 0.01 | 78 | 1019.3 |
| 20260902193430 | 68 | 310 | 2.0 | 7.0 | 0.00 | 0.01 | 0.01 | 81 | 1019.2 |
| 20260902192427 | 67 | 331 | 2.0 | 9.0 | 0.00 | 0.01 | 0.01 | 82 | 1019.3 |
| 20260902191419 | 67 | 326 | 6.0 | 10.0 | 0.00 | 0.01 | 0.01 | 82 | 1019.3 |
| 20260902190431 | 67 | 315 | 5.0 | 9.0 | 0.00 | 0.01 | 0.01 | 83 | 1019.5 |
| 20260902185442 | 66 | 272 | 2.0 | 7.0 | 0.00 | 0.01 | 0.01 | 86 | 1019.5 |
| 20260902184437 | 65 | 311 | 5.0 | 10.0 | 0.00 | 0.01 | 0.01 | 87 | 1019.5 |
| 20260902183429 | 65 | 313 | 3.0 | 6.0 | 0.00 | 0.01 | 0.01 | 89 | 1019.3 |
| 20260902182421 | 65 | 312 | 3.0 | 6.0 | 0.00 | 0.01 | 0.01 | 91 | 1019.3 |
| 20260902181432 | 64 | 267 | 3.0 | 9.0 | 0.00 | 0.01 | 0.01 | 93 | 1019.3 |
| 20260902180429 | 63 | 322 | 3.0 | 9.0 | 0.00 | 0.01 | 0.01 | 93 | 1019.2 |
| 20260902112427 | 58 | 303 | 0.0 | 2.0 | 0.00 | 0.00 | 0.00 | 93 | 1017.2 |
| 20260902111421 | 58 | 301 | 0.0 | 3.0 | 0.00 | 0.00 | 0.00 | 93 | 1017.1 |
| 20260902110415 | 58 | 300 | 0.0 | 1.0 | 0.00 | 0.00 | 0.00 | 93 | 1017.0 |
| 20260902105432 | 58 | 300 | 0.0 | 0.0 | 0.00 | 0.00 | 0.00 | 93 | 1017.1 |
| 20260902104445 | 58 | 300 | 0.0 | 1.0 | 0.00 | 0.00 | 0.00 | 93 | 1017.3 |
| 20260902103418 | 58 | 300 | 0.0 | 0.0 | 0.00 | 0.00 | 0.00 | 93 | 1017.3 |
| 20260902102429 | 59 | 300 | 0.0 | 3.0 | 0.00 | 0.00 | 0.00 | 93 | 1017.4 |
| 20260902101426 | 59 | 300 | 0.0 | 0.0 | 0.00 | 0.00 | 0.00 | 94 | 1017.4 |
| 20260902100418 | 58 | 300 | 0.0 | 0.0 | 0.00 | 0.00 | 0.00 | 94 | 1017.4 |
| 20260902095431 | 58 | 300 | 0.0 | 0.0 | 0.00 | 0.00 | 0.00 | 94 | 1017.4 |
| 20260902094444 | 58 | 300 | 0.0 | 0.0 | 0.00 | 0.00 | 0.00 | 94 | 1017.4 |
| 20260902093441 | 58 | 300 | 0.0 | 0.0 | 0.00 | 0.00 | 0.00 | 94 | 1017.4 |
| 20260902092413 | 58 | 300 | 0.0 | 0.0 | 0.00 | 0.00 | 0.00 | 93 | 1017.5 |
| 20260902091426 | 58 | 300 | 0.0 | 0.0 | 0.00 | 0.00 | 0.00 | 93 | 1017.6 |
| 20260902090420 | 58 | 300 | 0.0 | 0.0 | 0.00 | 0.00 | 0.00 | 94 | 1017.7 |
| 20260902085416 | 58 | 300 | 0.0 | 0.0 | 0.00 | 0.00 | 0.00 | 94 | 1017.7 |
| 20260902084429 | 58 | 300 | 0.0 | 0.0 | 0.00 | 0.00 | 0.00 | 94 | 1018.0 |
| 20260902083423 | 58 | 300 | 0.0 | 0.0 | 0.00 | 0.00 | 0.00 | 94 | 1018.0 |
| 20260902082421 | 58 | 300 | 0.0 | 0.0 | 0.00 | 0.00 | 0.00 | 94 | 1017.9 |
| 20260902081415 | 58 | 300 | 0.0 | 1.0 | 0.00 | 0.00 | 0.00 | 94 | 1017.9 |
| 20260902080429 | 58 | 300 | 0.0 | 0.0 | 0.00 | 0.00 | 0.00 | 94 | 1018.0 |
| 20260902075421 | 58 | 300 | 0.0 | 0.0 | 0.00 | 0.00 | 0.00 | 94 | 1017.8 |
| 20260902074420 | 58 | 300 | 0.0 | 0.0 | 0.00 | 0.00 | 0.00 | 94 | 1017.7 |
| 20260902073433 | 57 | 300 | 0.0 | 0.0 | 0.00 | 0.00 | 0.00 | 94 | 1017.8 |
| 20260902072426 | 57 | 300 | 0.0 | 0.0 | 0.00 | 0.00 | 0.00 | 94 | 1017.9 |
| 20260902071421 | 57 | 300 | 0.0 | 0.0 | 0.00 | 0.00 | 0.00 | 95 | 1017.9 |
| 20260902070418 | 57 | 300 | 0.0 | 0.0 | 0.00 | 0.00 | 0.00 | 95 | 1017.8 |
| 20260902065430 | 57 | 300 | 0.0 | 0.0 | 0.00 | 0.00 | 0.00 | 95 | 1017.9 |
| 20260902064424 | 57 | 300 | 0.0 | 0.0 | 0.00 | 0.00 | 0.00 | 94 | 1017.7 |
| 20260902063421 | 57 | 300 | 0.0 | 0.0 | 0.00 | 0.00 | 0.00 | 94 | 1017.8 |
| 20260902062415 | 57 | 300 | 0.0 | 0.0 | 0.00 | 0.00 | 0.00 | 94 | 1017.7 |
| 20260902061448 | 58 | 300 | 0.0 | 0.0 | 0.00 | 0.00 | 0.00 | 94 | 1017.7 |
| 20260902060439 | 58 | 300 | 0.0 | 0.0 | 0.00 | 0.00 | 0.00 | 94 | 1017.7 |
| 20260902055414 | 58 | 300 | 0.0 | 0.0 | 0.00 | 0.00 | 0.00 | 94 | 1017.9 |
| 20260902054449 | 58 | 300 | 0.0 | 0.0 | 0.00 | 0.00 | 0.00 | 93 | 1017.9 |
| 20260902053421 | 58 | 300 | 0.0 | 0.0 | 0.00 | 0.00 | 0.00 | 93 | 1018.0 |
| 20260902052415 | 59 | 300 | 0.0 | 0.0 | 0.00 | 0.00 | 0.00 | 93 | 1017.9 |
| 20260902051432 | 59 | 300 | 0.0 | 0.0 | 0.00 | 0.00 | 0.00 | 93 | 1018.0 |
| 20260902050427 | 59 | 300 | 0.0 | 1.0 | 0.00 | 0.00 | 0.00 | 93 | 1018.0 |